McConnell AFB, KS

7:22 AM CST on December 12, 2017 (GMT -0600)
McConnell Air Force Base

Weather History for KIAB - December, 2012

Change the Weather History Date:

Sunday, December 16, 2012

  Actual Average Record
Temperature  
Mean Temperature 39 °F -  
Max Temperature 46 °F 42 °F 63 °F (2013)
Min Temperature 32 °F 24 °F 9 °F (2008)
Degree Days  
Heating Degree Days 26    
Moisture  
Dew Point 35 °F    
Average Humidity 94    
Maximum Humidity 100    
Minimum Humidity 62    
Precipitation  
Precipitation 0.00 in - - ()
Sea Level Pressure  
Sea Level Pressure 29.76 in    
Wind  
Wind Speed 9 mph (NNE)    
Max Wind Speed 18 mph    
Max Gust Speed -    
Visibility 8 miles    
Events      
Averages and records for this station are not official NWS values.
T = Trace of Precipitation, MM = Missing Value Source: NWS Daily Summary

Daily Weather History Graph

Daily Weather History Graph

Search for Another Location

Airport or City:

Trip Planner

Search our weather history database for the weather conditions in past years. The results will help you decide how hot, cold, wet, or windy it might be!

Date:

Astronomy

Dec. 16, 2012 Rise Set
Actual Time 7:37 AM CST 5:12 PM CST
Civil Twilight 7:08 AM CST 5:41 PM CST
Nautical Twilight 6:35 AM CST 6:14 PM CST
Astronomical Twilight 6:03 AM CST 6:46 PM CST
Moon 10:15 AM CST (12/16) 9:23 PM CST (12/16)
Length of Visible Light 10h 33m
Length of Day
9h 34m
Waxing Crescent, 16% of the Moon is Illuminated
Dec 16
Waxing Crescent
Dec 19
First Quarter
Dec 28
Full
Jan 4
Last Quarter
Jan 11
New

Hourly Weather History & Observations

Time (CST) Temp. Windchill Dew Point Humidity Pressure Visibility Wind Dir Wind Speed Gust Speed Precip Events Conditions
12:55 AM 39.7 °F 35.6 °F 39.6 °F 99% 29.71 in 10.0 mi NNE 5.8 mph - N/A   Clear
1:55 AM 39.2 °F 35.9 °F 39.2 °F 100% 29.70 in 10.0 mi NE 4.6 mph - N/A   Clear
2:55 AM 35.8 °F 33.0 °F 35.4 °F 99% 29.71 in 10.0 mi NE 3.5 mph - N/A   Clear
3:55 AM 35.6 °F 29.2 °F 35.6 °F 100% 29.71 in 10.0 mi NNE 8.1 mph - N/A   Clear
4:55 AM 36.3 °F 30.8 °F 36.3 °F 100% 29.72 in 10.0 mi NE 6.9 mph - N/A   Clear
5:55 AM 35.8 °F 28.8 °F 35.8 °F 100% 29.72 in 10.0 mi NNE 9.2 mph - N/A   Clear
6:13 AM 35.6 °F 28.0 °F 35.6 °F 100% 29.73 in 9.0 mi North 10.4 mph - N/A   Clear
6:28 AM 35.6 °F 28.0 °F 35.6 °F 100% 29.73 in 9.0 mi NNE 10.4 mph - N/A   Clear
6:55 AM 35.4 °F 29.7 °F 35.4 °F 100% 29.73 in 9.0 mi NNE 6.9 mph - N/A   Clear
7:02 AM 33.8 °F 26.4 °F 33.8 °F 100% 29.73 in 9.0 mi ENE 9.2 mph - N/A   Clear
7:25 AM 33.8 °F 25.8 °F 33.8 °F 100% 29.74 in 7.0 mi NE 10.4 mph - N/A   Clear
7:45 AM 33.8 °F 24.3 °F 33.8 °F 100% 29.74 in 3.0 mi NNE 13.8 mph - N/A   Partly Cloudy
7:48 AM 33.8 °F 24.8 °F 33.8 °F 100% 29.74 in 2.5 mi NNE 12.7 mph - N/A   Partly Cloudy
8:00 AM 33.8 °F 24.3 °F 33.8 °F 100% 29.75 in 4.0 mi NNE 13.8 mph - N/A   Mostly Cloudy
8:26 AM 33.8 °F 25.8 °F 33.8 °F 100% 29.74 in 5.0 mi NE 10.4 mph - N/A   Scattered Clouds
8:55 AM 35.2 °F 26.6 °F 35.2 °F 100% 29.75 in 7.0 mi NE 12.7 mph - N/A   Clear
9:55 AM 37.8 °F 28.0 °F 37.8 °F 100% 29.74 in 10.0 mi NNE 18.4 mph - N/A   Clear
10:55 AM 41.0 °F 33.1 °F 39.2 °F 93% 29.74 in 10.0 mi NE 15.0 mph - N/A   Clear
11:30 AM 41.0 °F 34.3 °F 37.4 °F 87% 29.73 in 10.0 mi NNE 11.5 mph - N/A   Mostly Cloudy
11:55 AM 41.0 °F 33.5 °F 37.4 °F 87% 29.70 in 10.0 mi NE 13.8 mph - N/A   Overcast
12:55 PM 42.3 °F 37.3 °F 37.4 °F 83% 29.72 in 10.0 mi NNE 8.1 mph - N/A   Overcast
1:55 PM 43.7 °F 38.6 °F 37.9 °F 80% 29.70 in 10.0 mi NNE 9.2 mph - N/A   Overcast
2:55 PM 45.5 °F 40.8 °F 35.2 °F 67% 29.71 in 10.0 mi North 9.2 mph - N/A   Overcast
3:47 PM 46.4 °F 42.4 °F 33.8 °F 62% 29.73 in 10.0 mi North 8.1 mph - N/A   Mostly Cloudy
3:55 PM 46.4 °F 41.9 °F 33.8 °F 62% 29.73 in 10.0 mi North 9.2 mph - N/A   Mostly Cloudy
4:55 PM 42.6 °F 36.3 °F 34.9 °F 74% 29.74 in 10.0 mi North 11.5 mph - N/A   Clear
5:55 PM 39.6 °F 33.5 °F 34.3 °F 82% 29.76 in 10.0 mi NNE 9.2 mph - N/A   Clear
6:55 PM 37.9 °F 30.0 °F 34.7 °F 88% 29.78 in 10.0 mi NNE 12.7 mph - N/A   Clear
7:55 PM 34.9 °F 26.6 °F 33.6 °F 95% 29.81 in 10.0 mi NNE 11.5 mph - N/A   Clear
8:55 PM 32.9 °F 25.9 °F 32.7 °F 99% 29.83 in 10.0 mi NNE 8.1 mph - N/A   Clear
9:03 PM 32.0 °F 24.8 °F 32.0 °F 100% 29.84 in 9.0 mi North 8.1 mph - N/A   Clear
9:32 PM 32.0 °F 23.0 °F 32.0 °F 100% 29.82 in 8.0 mi NNE 11.5 mph - N/A   Partly Cloudy
9:44 PM 32.0 °F 24.8 °F 32.0 °F 100% 29.82 in 7.0 mi NNE 8.1 mph - N/A   Mostly Cloudy
9:45 PM 32.0 °F 24.8 °F 32.0 °F 100% 29.82 in 7.0 mi NNE 8.1 mph - N/A   Mostly Cloudy
9:46 PM 32.0 °F 24.8 °F 32.0 °F 100% 29.82 in 7.0 mi NNE 8.1 mph - N/A   Mostly Cloudy
9:55 PM 32.2 °F 25.8 °F 32.2 °F 100% 29.83 in 6.0 mi NNE 6.9 mph - N/A   Mostly Cloudy
10:25 PM 33.8 °F 29.6 °F 33.8 °F 100% 29.83 in 6.0 mi North 4.6 mph - N/A   Overcast
10:30 PM 33.8 °F 30.8 °F 33.8 °F 100% 29.83 in 7.0 mi North 3.5 mph - N/A   Overcast
10:55 PM 33.4 °F 28.1 °F 33.4 °F 100% 29.83 in 7.0 mi NNE 5.8 mph - N/A   Overcast
11:12 PM 33.8 °F 27.7 °F 33.8 °F 100% 29.83 in 7.0 mi NNE 6.9 mph - N/A   Overcast
11:55 PM 34.2 °F 27.5 °F 34.2 °F 100% 29.83 in 8.0 mi North 8.1 mph - N/A   Overcast